Location: Borgo
(42.3939°N, 9.2791°E)
Time: 21:38:04
(UTC+00:00)

Cosmos 1726 Rocket - Pass Details

Date: 24 January 2021
Orbit: 604 x 628 km, 82.5° (Epoch: 03 March)

Event Time Altitude Azimuth Distance (km) Brightness Sun altitude
Rises 17:06:20 0° 348° (NNW) 2,888 6.9 -7.6°
Reaches altitude 10° 17:08:34 10° 345° (NNW) 1,982 6.1 -8.0°
Maximum altitude 17:12:54 61° 266° (W) 705 4.2 -8.8°
Drops below altitude 10° 17:17:13 10° 186° (S) 1,982 6.5 -9.5°
Sets 17:19:28 0° 183° (S) 2,887 7.3 -9.9°
